This demonstration page uses our WeatherBlox Daily Observations layout. Learn more.

Hourly Observations for May 8, 2020

Temp ( °F °C ) Dew Point ( °F °C ) Humidity (%) Winds ( mph kmh ) Pressure ( in mb ) Visibility ( mi km ) Precip ( " mm )
12:15 am 00:15 Clear 52 11 32 0 47 47 SW 6 9 29.88 1012 10 16.0934 0 0
12:35 am 00:35 Clear 52 11 34 1 50 50 SW 7 11 29.88 1012 10 16.0934 0 0
12:55 am 00:55 Clear 54 12 32 0 44 44 SW 7 11 29.88 1012 10 16.0934 0 0
1:15 am 01:15 Clear 54 12 32 0 44 44 SW 6 9 29.88 1012 10 16.0934 0 0
1:35 am 01:35 Clear 54 12 32 0 44 44 SW 6 9 29.87 1012 10 16.0934 0 0
1:55 am 01:55 Clear 52 11 32 0 47 47 SW 8 13 29.86 1011 10 16.0934 0 0
2:15 am 02:15 Clear 52 11 34 1 50 50 SSW 6 9 29.85 1011 10 16.0934 0 0
2:35 am 02:35 Clear 50 10 34 1 54 54 SW 3 6 29.86 1011 10 16.0934 0 0
2:55 am 02:55 Partly Cloudy 50 10 34 1 54 54 SSW 3 6 29.86 1011 10 16.0934 0 0
3:15 am 03:15 Partly Cloudy 48 9 36 2 62 62 WSW 3 6 29.86 1011 10 16.0934 0 0
3:35 am 03:35 Mostly Cloudy 50 10 36 2 58 58 N 10 17 29.88 1012 10 16.0934 0 0
3:55 am 03:55 Mostly Cloudy 50 10 37 3 62 62 WNW 7 11 29.88 1012 10 16.0934 0 0
4:15 am 04:15 Partly Cloudy 52 11 36 2 54 54 Calm 29.87 1012 10 16.0934 0 0
4:35 am 04:35 Mostly Cloudy 50 10 36 2 58 58 W 3 6 29.88 1012 10 16.0934 0 0
4:55 am 04:55 Cloudy 50 10 37 3 62 62 W 3 6 29.88 1012 10 16.0934 0 0
5:15 am 05:15 Cloudy 46 8 41 5 82 82 Calm 29.88 1012 10 16.0934 0 0
5:35 am 05:35 Cloudy 46 8 39 4 76 76 Calm 29.89 1012 10 16.0934 0 0
5:55 am 05:55 Mostly Cloudy 50 10 37 3 62 62 Calm 29.88 1012 10 16.0934 0 0
6:15 am 06:15 Mostly Cloudy 48 9 39 4 71 71 Calm 29.87 1011 10 16.0934 0 0
6:35 am 06:35 Mostly Cloudy 46 8 39 4 76 76 SW 3 6 29.88 1012 10 16.0934 0 0
6:55 am 06:55 Partly Cloudy 48 9 39 4 71 71 SSW 5 7 29.87 1011 10 16.0934 0 0
7:15 am 07:15 Partly Cloudy 50 10 39 4 67 67 SSW 6 9 29.86 1011 10 16.0934 0 0
7:35 am 07:35 Mostly Cloudy 50 10 41 5 71 71 SSW 7 11 29.86 1011 10 16.0934 0 0
7:55 am 07:55 Cloudy 50 10 39 4 67 67 SSW 5 7 29.87 1011 10 16.0934 0 0
8:15 am 08:15 Cloudy 50 10 41 5 71 71 Calm 29.87 1011 10 16.0934 0 0
8:35 am 08:35 Cloudy 52 11 41 5 67 67 WSW 6 9 29.85 1011 10 16.0934 0 0
8:55 am 08:55 Cloudy 54 12 41 5 63 63 WSW 9 15 29.85 1011 10 16.0934 0 0
9:15 am 09:15 Mostly Cloudy 55 13 41 5 59 59 W 8 13 29.84 1011 10 16.0934 0 0
9:35 am 09:35 Mostly Cloudy 55 13 43 6 63 63 W 5 7 29.83 1010 10 16.0934 0 0
9:55 am 09:55 Cloudy 55 13 43 6 63 63 Calm 29.82 1010 10 16.0934 0 0
10:15 am 10:15 Cloudy 55 13 43 6 63 63 SW 3 6 29.81 1010 10 16.0934 0 0
10:35 am 10:35 Cloudy 57 14 45 7 63 63 NW 7 11 29.82 1010 10 16.0934 0 0
10:55 am 10:55 Cloudy 57 14 45 7 63 63 Calm 29.82 1010 10 16.0934 0 0
11:15 am 11:15 Cloudy 59 15 45 7 59 59 SSW 3 6 29.81 1009 10 16.0934 0 0
11:35 am 11:35 Cloudy 61 16 45 7 55 55 Calm 29.79 1009 10 16.0934 0 0
11:55 am 11:55 Cloudy 59 15 46 8 63 63 NW 5 7 29.79 1009 10 16.0934 0 0
12:15 pm 12:15 Cloudy 55 13 48 9 77 77 N 7 11 29.79 1009 10 16.0934 0 0
12:35 pm 12:35 Cloudy 54 12 50 10 88 88 N 10 17 29.79 1009 10 16.0934 0 0
12:55 pm 12:55 Cloudy 52 11 50 10 94 94 N 8 13 29.78 1009 7 11.26538 0 0
1:15 pm 13:15 Cloudy 52 11 50 10 94 94 N 5 7 29.79 1009 10 16.0934 0.01 0.254
1:35 pm 13:35 Cloudy 54 12 50 10 88 88 NE 5 7 29.76 1008 10 16.0934 0.01 0.254
1:55 pm 13:55 Cloudy 54 12 52 11 94 94 Calm 29.74 1007 10 16.0934 0.01 0.254
2:15 pm 14:15 Cloudy 54 12 52 11 94 94 NE 3 6 29.73 1007 10 16.0934 0 0
2:35 pm 14:35 Cloudy 55 13 52 11 88 88 SSE 3 6 29.72 1006 10 16.0934 0 0
2:55 pm 14:55 Cloudy 55 13 52 11 88 88 Calm 29.72 1006 10 16.0934 0 0
3:15 pm 15:15 Cloudy 55 13 52 11 88 88 Calm 29.71 1006 10 16.0934 0 0
3:35 pm 15:35 Cloudy 55 13 52 11 88 88 Calm 29.7 1006 10 16.0934 0 0
3:55 pm 15:55 Cloudy 57 14 50 10 77 77 W 10 17 29.69 1005 10 16.0934 0 0
4:15 pm 16:15 Cloudy 55 13 50 10 82 82 W 10 17 29.68 1005 10 16.0934 0 0
4:35 pm 16:35 Cloudy 55 13 54 12 94 94 WNW 6 9 29.68 1005 10 16.0934 0 0
4:55 pm 16:55 Cloudy 55 13 52 11 88 88 WSW 3 6 29.67 1005 10 16.0934 0 0
5:15 pm 17:15 Cloudy 55 13 52 11 88 88 SW 3 6 29.66 1004 10 16.0934 0 0
5:35 pm 17:35 Cloudy 54 12 52 11 94 94 WSW 6 9 29.65 1004 10 16.0934 0 0
5:55 pm 17:55 Cloudy 54 12 52 11 94 94 S 8 13 29.64 1004 10 16.0934 0.01 0.254
6:15 pm 18:15 Cloudy 54 12 52 11 94 94 SSW 9 15 29.64 1004 10 16.0934 0 0
6:35 pm 18:35 Cloudy 54 12 50 10 88 88 SW 9 15 29.64 1004 10 16.0934 0 0
6:55 pm 18:55 Cloudy 54 12 50 10 88 88 SW 10 17 29.63 1003 10 16.0934 0.01 0.254
7:15 pm 19:15 Cloudy 54 12 50 10 88 88 WSW 6 9 29.63 1003 10 16.0934 0 0
7:35 pm 19:35 Cloudy 52 11 50 10 94 94 N 17 28 29.65 1004 7 11.26538 0.04 1.016
7:55 pm 19:55 Cloudy 46 8 45 7 93 93 N 15 24 29.67 1005 7 11.26538 0.12 3.048
8:15 pm 20:15 Cloudy 46 8 45 7 93 93 NNW 13 20 29.68 1005 10 16.0934 0.01 0.254
8:35 pm 20:35 Cloudy 45 7 45 7 100 100 NNW 13 20 29.7 1006 10 16.0934 0.02 0.508
8:55 pm 20:55 Cloudy 45 7 45 7 100 100 NNW 9 15 29.71 1006 10 16.0934 0.02 0.508
9:15 pm 21:15 Cloudy 46 8 45 7 93 93 NW 8 13 29.72 1006 10 16.0934 0 0
9:35 pm 21:35 Cloudy 45 7 43 6 93 93 NW 17 28 29.74 1007 10 16.0934 0 0
9:55 pm 21:55 Cloudy 43 6 39 4 87 87 NNW 26 43 29.77 1008 10 16.0934 0 0
10:15 pm 22:15 Cloudy 41 5 36 2 81 81 NNW 31 50 29.8 1009 10 16.0934 0 0
10:35 pm 22:35 Cloudy 41 5 36 2 81 81 NNW 24 39 29.82 1010 10 16.0934 0 0
10:55 pm 22:55 Cloudy 41 5 34 1 76 76 NNW 20 31 29.83 1010 10 16.0934 0 0
11:15 pm 23:15 Cloudy 41 5 32 0 70 70 NNW 24 39 29.86 1011 10 16.0934 0 0
11:35 pm 23:35 Partly Cloudy 39 4 32 0 75 75 NNW 21 33 29.88 1012 10 16.0934 0 0
11:55 pm 23:55 Clear 39 4 32 0 75 75 NNW 17 28 29.89 1012 10 16.0934 0 0

Powered by AerisWeather